"startDT [UTC]","vpos","CH4 [ppm]","stdev(CH4) [ppm]","CO2 [ppm]","stdev(CO2) [ppm]","H2O_reported [%]","stdev(H2O_reported)","CavityPressure [torr]","CavityTemp [C]","OutletValve","CH4_dry [ppm]","CO2_dry [ppm]","DasTemp [C]","EtalonTemp [C]","WarmBoxTemp [C]","MPVPosition","T_ECpre [C]","T_EC1 [C]","T_EC2 [C]","p_inlet [hPa]","p_in [hPa]","p_out [hPa]","T_inlet [C]","RH_inlet [%]","dwpt_inlet [C]","T_vent [C]","RH_vent [%]","dwpt_vent [C]","flow_vent [l min-1]","flow_inlet [l min-1]","dwpt_sample [C]","T_room [C]"
2016-10-28 00:00:00,0.0,1.93118,0.00034,400.606,0.031,0.2822,0.0020,140.001,45.000,31577.97996,1.93661,401.975,34.446,45.071,45.000,0.00,0.07,-272.88,-272.91,-5,520,-948,18.7,10.0,-13.6,19.1,9.9,-13.4,0.53,2.14,-12.2,25.3
2016-10-28 00:01:00,0.0,1.93111,0.00041,400.635,0.035,0.2817,0.0015,140.001,45.000,31578.88607,1.93651,402.003,34.439,45.071,45.000,0.00,0.07,-272.87,-272.91,-6,521,-948,18.6,10.0,-13.6,19.1,9.8,-13.4,0.53,1.87,-12.2,25.3
2016-10-28 00:02:00,0.0,1.93098,0.00034,400.603,0.038,0.2815,0.0015,140.000,45.000,31578.98938,1.93639,401.970,34.402,45.071,45.000,0.00,0.07,-272.89,-272.92,-4,521,-948,18.7,10.0,-13.6,19.1,9.8,-13.4,0.52,1.95,-12.2,25.3
2016-10-28 00:03:00,0.0,1.93109,0.00032,400.618,0.029,0.2821,0.0017,139.999,45.000,31578.87615,1.93647,401.986,34.399,45.071,45.000,0.00,0.07,-272.87,-272.92,-6,520,-948,18.7,10.0,-13.6,19.1,9.9,-13.4,0.53,2.10,-12.2,25.3
2016-10-28 00:04:00,0.0,1.93094,0.00038,400.616,0.029,0.2824,0.0015,139.999,45.000,31578.63542,1.93636,401.988,34.402,45.072,45.000,0.00,0.07,-272.87,-272.91,-5,521,-948,18.7,10.0,-13.6,19.1,9.9,-13.4,0.52,1.77,-12.2,25.3
2016-10-28 00:05:00,0.0,1.93089,0.00031,400.600,0.039,0.2836,0.0021,139.999,45.000,31579.78663,1.93633,401.976,34.412,45.072,45.000,0.00,0.07,-272.87,-272.92,-4,521,-948,18.7,10.0,-13.5,19.1,9.9,-13.3,0.53,2.16,-12.2,25.3
2016-10-28 00:06:00,0.0,1.93072,0.00047,400.570,0.027,0.2830,0.0017,139.999,45.000,31578.38648,1.93612,401.944,34.421,45.071,45.000,0.00,0.07,-272.89,-272.92,-6,521,-948,18.7,10.0,-13.5,19.1,9.9,-13.4,0.53,1.84,-12.2,25.4
2016-10-28 00:07:00,0.0,1.93108,0.00038,400.589,0.042,0.2828,0.0022,139.999,45.000,31578.41578,1.93651,401.962,34.429,45.071,45.000,0.00,0.07,-272.88,-272.91,-5,521,-948,18.7,10.0,-13.5,19.1,9.9,-13.4,0.52,2.00,-12.2,25.3
2016-10-28 00:08:00,0.0,1.93064,0.00032,400.560,0.030,0.2824,0.0022,140.002,45.000,31579.66205,1.93606,401.930,34.418,45.071,45.000,0.00,0.07,-272.87,-272.91,-4,520,-948,18.7,10.0,-13.5,19.1,9.9,-13.4,0.53,2.05,-12.2,25.4
2016-10-28 00:09:00,0.0,1.93106,0.00034,400.582,0.032,0.2831,0.0021,140.002,45.000,31577.06513,1.93645,401.957,34.398,45.071,45.000,0.00,0.07,-272.88,-272.91,-6,521,-948,18.7,10.0,-13.5,19.1,9.9,-13.4,0.52,1.80,-12.2,25.3
2016-10-28 00:10:00,0.0,1.93096,0.00039,400.576,0.037,0.2822,0.0020,139.999,45.000,31574.77327,1.93640,401.946,34.391,45.071,45.000,0.00,0.07,-272.88,-272.91,-5,521,-948,18.7,10.0,-13.5,19.1,9.9,-13.3,0.53,2.17,-12.2,25.3
2016-10-28 00:11:00,0.0,1.93074,0.00035,400.575,0.037,0.2823,0.0020,140.000,45.000,31577.24230,1.93613,401.945,34.415,45.071,45.000,0.00,0.07,-272.87,-272.90,-5,520,-948,18.6,10.0,-13.6,19.1,9.9,-13.4,0.53,1.80,-12.2,25.3
2016-10-28 00:12:00,0.0,1.93075,0.00025,400.579,0.035,0.2826,0.0015,140.000,45.000,31577.47949,1.93614,401.951,34.437,45.071,45.000,0.00,0.07,-272.89,-272.92,-6,521,-948,18.7,10.0,-13.6,19.1,9.9,-13.4,0.52,2.06,-12.2,25.3
2016-10-28 00:13:00,0.0,1.93080,0.00047,400.562,0.035,0.2825,0.0017,140.005,45.000,31578.59146,1.93620,401.932,34.437,45.071,45.000,0.00,0.07,-272.88,-272.92,-5,521,-948,18.7,10.0,-13.5,19.1,9.9,-13.4,0.53,1.99,-12.2,25.3
2016-10-28 00:14:00,0.0,1.93080,0.00042,400.597,0.028,0.2824,0.0009,140.002,45.000,31576.65566,1.93622,401.967,34.436,45.071,45.000,0.00,0.07,-272.88,-272.91,-5,521,-948,18.7,10.0,-13.6,19.1,9.9,-13.4,0.52,1.84,-12.2,25.3
2016-10-28 00:15:00,0.0,1.93094,0.00040,400.582,0.034,0.2815,0.0020,140.001,45.000,31575.84433,1.93632,401.950,34.438,45.071,45.000,0.00,0.07,-272.87,-272.92,-6,521,-948,18.6,10.0,-13.6,19.1,9.8,-13.4,0.53,2.16,-12.2,25.3
2016-10-28 00:16:00,0.0,1.93073,0.00035,400.579,0.041,0.2826,0.0021,140.002,45.000,31576.81533,1.93614,401.950,34.434,45.071,45.000,0.00,0.07,-272.88,-272.92,-4,521,-948,18.7,10.0,-13.6,19.1,9.9,-13.4,0.53,1.77,-12.2,25.3
2016-10-28 00:17:00,0.0,1.93091,0.00042,400.612,0.036,0.2825,0.0017,140.000,45.000,31575.92351,1.93632,401.983,34.463,45.071,45.000,0.00,0.07,-272.88,-272.92,-5,520,-948,18.6,10.0,-13.6,19.1,9.9,-13.4,0.53,2.11,-12.2,25.3
2016-10-28 00:18:00,0.0,1.93130,0.00040,400.628,0.035,0.2818,0.0017,140.002,45.000,31574.26540,1.93670,401.995,34.499,45.071,44.999,0.00,0.07,-272.88,-272.91,-6,521,-948,18.7,10.0,-13.6,19.1,9.9,-13.4,0.53,1.93,-12.2,25.3
2016-10-28 00:19:00,0.0,1.93128,0.00037,400.615,0.026,0.2819,0.0016,140.000,45.000,31572.17777,1.93666,401.984,34.502,45.071,44.999,0.00,0.07,-272.88,-272.91,-4,521,-948,18.6,10.0,-13.6,19.1,9.9,-13.4,0.52,1.89,-12.2,25.3
2016-10-28 00:20:00,0.0,1.93116,0.00033,400.580,0.033,0.2832,0.0015,140.000,45.000,31573.17011,1.93659,401.955,34.500,45.071,44.999,0.00,0.07,-272.88,-272.91,-5,520,-948,18.6,10.0,-13.5,19.1,9.9,-13.4,0.53,2.14,-12.2,25.3
2016-10-28 00:21:00,0.0,1.93112,0.00040,400.596,0.031,0.2829,0.0013,140.002,45.000,31572.96351,1.93654,401.968,34.466,45.071,44.999,0.00,0.07,-272.87,-272.91,-6,521,-948,18.7,10.0,-13.5,19.1,9.9,-13.3,0.53,1.77,-12.2,25.3
2016-10-28 00:22:00,0.0,1.93100,0.00034,400.578,0.026,0.2825,0.0019,140.001,45.000,31575.13844,1.93640,401.950,34.432,45.071,45.000,0.00,0.07,-272.88,-272.92,-4,521,-948,18.7,10.0,-13.6,19.1,9.9,-13.4,0.53,2.14,-12.2,25.3
2016-10-28 00:23:00,0.0,1.93107,0.00036,400.599,0.034,0.2822,0.0016,139.999,45.000,31574.38294,1.93647,401.968,34.385,45.071,45.000,0.00,0.07,-272.88,-272.92,-6,521,-948,18.6,10.0,-13.6,19.1,9.9,-13.3,0.53,1.88,-12.2,25.3
2016-10-28 00:24:00,0.0,1.93107,0.00025,400.601,0.045,0.2819,0.0018,140.000,45.000,31574.71679,1.93645,401.969,34.379,45.072,45.001,0.00,0.07,-272.87,-272.90,-5,521,-948,18.6,10.0,-13.6,19.1,9.9,-13.4,0.52,1.94,-12.2,25.3
2016-10-28 00:25:00,0.0,1.93133,0.00035,400.596,0.026,0.2819,0.0018,140.000,45.000,31573.87653,1.93672,401.965,34.387,45.072,45.001,0.00,0.07,-272.87,-272.91,-4,520,-948,18.7,10.0,-13.6,19.1,9.9,-13.4,0.53,2.11,-12.2,25.3
2016-10-28 00:26:00,0.0,1.93146,0.00028,400.589,0.031,0.2817,0.0015,139.999,45.000,31574.51293,1.93686,401.956,34.381,45.072,45.001,0.00,0.07,-272.88,-272.91,-6,520,-948,18.7,10.0,-13.6,19.1,9.9,-13.3,0.53,1.78,-12.2,25.3
2016-10-28 00:27:00,0.0,1.93124,0.00032,400.602,0.025,0.2829,0.0017,140.000,45.000,31575.26983,1.93665,401.975,34.379,45.072,45.001,0.00,0.07,-272.89,-272.91,-5,521,-948,18.6,10.0,-13.5,19.1,9.9,-13.3,0.53,2.16,-12.2,25.3
2016-10-28 00:28:00,0.0,1.93105,0.00030,400.564,0.042,0.2832,0.0017,140.002,45.000,31575.30218,1.93647,401.940,34.382,45.072,45.000,0.00,0.07,-272.86,-272.91,-4,520,-948,18.6,10.0,-13.5,19.1,9.9,-13.3,0.53,1.84,-12.2,25.3
2016-10-28 00:29:00,0.0,1.93117,0.00038,400.567,0.029,0.2840,0.0017,140.001,45.000,31574.07523,1.93665,401.946,34.415,45.072,45.000,0.00,0.07,-272.89,-272.92,-6,520,-948,18.6,10.1,-13.5,19.1,9.9,-13.3,0.52,2.00,-12.2,25.3
2016-10-28 00:30:00,0.0,1.93131,0.00030,400.595,0.034,0.2825,0.0014,140.002,45.000,31574.81363,1.93670,401.965,34.442,45.071,45.000,0.00,0.07,-272.88,-272.92,-5,521,-948,18.7,10.1,-13.5,19.1,9.9,-13.3,0.53,2.05,-12.2,25.3
2016-10-28 00:31:00,0.0,1.93071,0.00040,400.572,0.040,0.2838,0.0015,139.999,45.000,31575.61380,1.93615,401.951,34.447,45.071,45.000,0.00,0.07,-272.87,-272.90,-5,520,-948,18.6,10.1,-13.5,19.1,9.9,-13.3,0.52,1.80,-12.2,25.3
2016-10-28 00:32:00,0.0,1.93077,0.00030,400.582,0.037,0.2830,0.0015,139.999,45.000,31576.32059,1.93617,401.955,34.458,45.071,45.000,0.00,0.07,-272.87,-272.91,-6,521,-948,18.7,10.1,-13.5,19.1,9.9,-13.3,0.53,2.17,-12.2,25.3
2016-10-28 00:33:00,0.0,1.93095,0.00038,400.582,0.028,0.2850,0.0018,140.001,45.000,31575.23032,1.93642,401.966,34.457,45.071,45.000,0.00,0.07,-272.88,-272.91,-4,521,-948,18.7,10.1,-13.5,19.1,10.0,-13.3,0.53,1.82,-12.2,25.3
2016-10-28 00:34:00,0.0,1.93084,0.00032,400.565,0.041,0.2854,0.0012,140.001,45.000,31573.98425,1.93629,401.949,34.442,45.071,44.999,0.00,0.07,-272.88,-272.90,-5,520,-948,18.6,10.1,-13.5,19.1,10.0,-13.2,0.52,2.05,-12.2,25.3
2016-10-28 00:35:00,0.0,1.93080,0.00040,400.586,0.034,0.2845,0.0017,140.000,45.000,31572.93867,1.93627,401.967,34.443,45.071,45.000,0.00,0.07,-272.87,-272.91,-6,521,-948,18.7,10.1,-13.4,19.1,10.0,-13.2,0.53,2.00,-12.2,25.3
2016-10-28 00:36:00,0.0,1.93071,0.00048,400.581,0.037,0.2862,0.0023,140.001,45.000,31574.67760,1.93623,401.971,34.441,45.071,45.000,0.00,0.07,-272.88,-272.92,-4,521,-948,18.7,10.1,-13.4,19.1,10.0,-13.3,0.52,1.84,-12.2,25.3
2016-10-28 00:37:00,0.0,1.93097,0.00041,400.593,0.021,0.2856,0.0025,139.998,45.000,31573.84896,1.93639,401.980,34.439,45.071,45.000,0.00,0.07,-272.88,-272.92,-5,520,-948,18.6,10.1,-13.4,19.1,10.0,-13.3,0.53,2.17,-12.2,25.3
2016-10-28 00:38:00,0.0,1.93104,0.00028,400.597,0.043,0.2859,0.0014,139.999,45.000,31572.80810,1.93651,401.985,34.439,45.071,45.000,0.00,0.07,-272.87,-272.91,-6,521,-948,18.6,10.2,-13.4,19.1,10.0,-13.2,0.53,1.78,-12.2,25.3
2016-10-28 00:39:00,0.0,1.93119,0.00035,400.584,0.039,0.2861,0.0016,139.998,45.000,31572.31798,1.93668,401.973,34.438,45.071,45.000,0.00,0.07,-272.89,-272.91,-4,521,-948,18.6,10.2,-13.4,19.1,10.0,-13.2,0.52,2.10,-12.2,25.3
2016-10-28 00:40:00,0.0,1.93102,0.00034,400.615,0.040,0.2856,0.0017,139.999,45.000,31574.35205,1.93649,402.002,34.437,45.071,45.000,0.00,0.07,-272.87,-272.92,-6,521,-948,18.6,10.2,-13.4,19.1,10.0,-13.2,0.53,1.93,-12.2,25.3
2016-10-28 00:41:00,0.0,1.93118,0.00040,400.611,0.032,0.2870,0.0014,140.000,45.000,31574.63842,1.93668,402.004,34.438,45.071,45.000,0.00,0.07,-272.87,-272.91,-5,521,-948,18.6,10.2,-13.4,19.1,10.0,-13.2,0.52,1.89,-12.2,25.3
2016-10-28 00:42:00,0.0,1.93104,0.00036,400.592,0.029,0.2880,0.0024,139.999,45.000,31574.10130,1.93655,401.989,34.434,45.071,45.000,0.00,0.07,-272.88,-272.91,-4,520,-948,18.6,10.2,-13.3,19.1,10.1,-13.1,0.53,2.13,-12.2,25.3
2016-10-28 00:43:00,0.0,1.93127,0.00029,400.616,0.028,0.2873,0.0016,139.999,45.000,31572.70163,1.93678,402.011,34.437,45.071,45.000,0.00,0.07,-272.87,-272.92,-6,521,-948,18.6,10.2,-13.3,19.1,10.1,-13.1,0.53,1.77,-12.2,25.3
2016-10-28 00:44:00,0.0,1.93133,0.00027,400.612,0.036,0.2883,0.0016,140.001,45.000,31573.59219,1.93683,402.013,34.412,45.071,45.000,0.00,0.07,-272.88,-272.90,-5,521,-948,18.6,10.2,-13.3,19.1,10.1,-13.2,0.53,2.14,-12.2,25.3
2016-10-28 00:45:00,0.0,1.93136,0.00034,400.619,0.027,0.2873,0.0013,140.002,45.000,31573.02232,1.93686,402.013,34.411,45.071,45.000,0.00,0.07,-272.87,-272.91,-4,520,-948,18.6,10.2,-13.3,19.1,10.1,-13.2,0.53,1.88,-12.2,25.3
2016-10-28 00:46:00,0.0,1.93143,0.00031,400.609,0.042,0.2886,0.0015,140.000,45.000,31571.63175,1.93698,402.010,34.424,45.071,45.000,0.00,0.07,-272.88,-272.92,-6,520,-948,18.7,10.2,-13.3,19.1,10.1,-13.1,0.52,1.94,-12.2,25.3
2016-10-28 00:47:00,0.0,1.93153,0.00028,400.628,0.027,0.2876,0.0014,140.000,45.000,31572.34674,1.93704,402.025,34.435,45.071,45.000,0.00,0.07,-272.88,-272.92,-5,521,-948,18.7,10.2,-13.3,19.1,10.1,-13.2,0.53,2.10,-12.2,25.3
2016-10-28 00:48:00,0.0,1.93166,0.00032,400.620,0.028,0.2883,0.0022,139.999,45.000,31569.90545,1.93715,402.020,34.438,45.071,45.000,0.00,0.07,-272.87,-272.91,-5,521,-948,18.6,10.2,-13.3,19.1,10.1,-13.2,0.52,1.78,-12.2,25.3
2016-10-28 00:49:00,0.0,1.93179,0.00032,400.600,0.036,0.2871,0.0012,139.999,45.000,31570.51418,1.93731,401.994,34.438,45.071,45.000,0.00,0.07,-272.89,-272.91,-6,521,-948,18.7,10.2,-13.3,19.1,10.1,-13.2,0.53,2.17,-12.2,25.3
2016-10-28 00:50:00,0.0,1.93146,0.00032,400.620,0.033,0.2869,0.0018,140.001,45.000,31574.39825,1.93696,402.012,34.439,45.071,45.000,0.00,0.07,-272.88,-272.92,-5,521,-948,18.7,10.2,-13.4,19.1,10.0,-13.2,0.53,1.83,-12.2,25.3
2016-10-28 00:51:00,0.0,1.93124,0.00029,400.634,0.019,0.2872,0.0013,140.001,45.000,31574.52764,1.93674,402.028,34.432,45.071,45.000,0.00,0.07,-272.88,-272.90,-5,520,-948,18.6,10.2,-13.4,19.1,10.0,-13.2,0.52,2.00,-12.2,25.3
2016-10-28 00:52:00,0.0,1.93120,0.00033,400.626,0.034,0.2879,0.0013,140.000,45.000,31575.58279,1.93671,402.025,34.432,45.071,45.000,0.00,0.07,-272.88,-272.91,-6,521,-948,18.7,10.2,-13.3,19.1,10.0,-13.2,0.53,2.05,-12.2,25.3
2016-10-28 00:53:00,0.0,1.93107,0.00032,400.599,0.032,0.2884,0.0013,140.001,45.000,31575.55847,1.93659,401.999,34.404,45.071,45.000,0.00,0.07,-272.88,-272.91,-4,521,-948,18.7,10.2,-13.3,19.1,10.1,-13.2,0.52,1.80,-12.2,25.3
2016-10-28 00:54:00,0.0,1.93127,0.00039,400.575,0.040,0.2886,0.0013,140.000,45.000,31573.71002,1.93679,401.977,34.380,45.071,45.000,0.00,0.07,-272.87,-272.91,-5,520,-948,18.6,10.3,-13.3,19.1,10.1,-13.1,0.53,2.17,-12.2,25.3
2016-10-28 00:55:00,0.0,1.93103,0.00035,400.591,0.029,0.2883,0.0016,140.001,45.000,31575.48892,1.93656,401.992,34.375,45.072,45.000,0.00,0.07,-272.87,-272.91,-6,521,-948,18.6,10.2,-13.3,19.1,10.1,-13.1,0.53,1.79,-12.2,25.3
2016-10-28 00:56:00,0.0,1.93097,0.00041,400.601,0.034,0.2899,0.0016,140.000,45.000,31571.56745,1.93652,402.009,34.369,45.072,45.000,0.00,0.07,-272.88,-272.91,-4,521,-948,18.7,10.3,-13.2,19.1,10.1,-13.1,0.52,2.07,-12.2,25.3
2016-10-28 00:57:00,0.0,1.93100,0.00042,400.588,0.029,0.2903,0.0021,139.999,45.000,31573.26054,1.93655,401.996,34.351,45.072,45.000,0.00,0.07,-272.88,-272.91,-5,520,-948,18.6,10.3,-13.2,19.1,10.1,-13.1,0.53,1.98,-12.2,25.3
2016-10-28 00:58:00,0.0,1.93064,0.00036,400.550,0.045,0.2914,0.0025,139.996,45.000,31575.10788,1.93624,401.963,34.348,45.072,45.000,0.00,0.07,-272.87,-272.90,-6,521,-948,18.6,10.4,-13.2,19.1,10.2,-13.0,0.52,1.85,-12.2,25.3
2016-10-28 00:59:00,0.0,1.93062,0.00049,400.561,0.040,0.2920,0.0020,140.001,45.000,31576.19908,1.93621,401.980,34.341,45.072,45.000,0.00,0.07,-272.88,-272.91,-4,520,-948,18.6,10.4,-13.1,19.1,10.2,-13.0,0.53,2.15,-12.2,25.3
2016-10-28 01:00:00,0.0,1.93064,0.00046,400.561,0.028,0.2937,0.0024,139.999,45.000,31576.83594,1.93625,401.987,34.351,45.072,45.000,0.00,0.07,-272.88,-272.92,-6,521,-948,18.6,10.4,-13.1,19.1,10.2,-13.0,0.53,1.77,-12.2,25.3
2016-10-28 01:01:00,0.0,1.93062,0.00041,400.564,0.036,0.2926,0.0017,140.000,45.000,31577.12028,1.93622,401.983,34.377,45.071,45.000,0.00,0.07,-272.88,-272.91,-5,521,-948,18.6,10.4,-13.1,19.1,10.2,-13.0,0.53,2.12,-12.2,25.3
2016-10-28 01:02:00,0.0,1.93060,0.00041,400.538,0.033,0.2932,0.0018,139.999,45.000,31576.28026,1.93622,401.963,34.393,45.071,45.000,0.00,0.07,-272.88,-272.91,-4,520,-948,18.7,10.4,-13.1,19.1,10.2,-12.9,0.53,1.91,-12.2,25.3
2016-10-28 01:03:00,0.0,1.93063,0.00029,400.544,0.045,0.2942,0.0017,139.998,45.000,31574.23548,1.93626,401.972,34.393,45.071,45.000,0.00,0.07,-272.89,-272.91,-6,520,-948,18.7,10.4,-13.0,19.1,10.3,-12.9,0.52,1.92,-12.2,25.3
2016-10-28 01:04:00,0.0,1.93057,0.00036,400.537,0.025,0.2934,0.0016,140.001,45.000,31575.51730,1.93619,401.961,34.421,45.071,45.000,0.00,0.07,-272.88,-272.91,-5,521,-948,18.6,10.4,-13.1,19.1,10.3,-12.9,0.53,2.11,-12.2,25.3
2016-10-28 01:05:00,0.0,1.93111,0.00039,400.568,0.040,0.2927,0.0022,139.999,45.000,31573.30216,1.93671,401.989,34.437,45.071,44.999,0.00,0.07,-272.87,-272.91,-4,520,-948,18.7,10.4,-13.1,19.1,10.2,-12.9,0.52,1.77,-12.2,25.3
2016-10-28 01:06:00,0.0,1.93089,0.00048,400.553,0.033,0.2934,0.0016,140.000,45.000,31573.18546,1.93652,401.978,34.444,45.071,45.000,0.00,0.07,-272.88,-272.91,-6,520,-948,18.6,10.4,-13.1,19.1,10.2,-12.9,0.53,2.16,-12.2,25.3
2016-10-28 01:07:00,0.0,1.93089,0.00038,400.555,0.039,0.2942,0.0014,140.000,45.000,31573.77914,1.93653,401.983,34.440,45.071,44.999,0.00,0.07,-272.87,-272.91,-5,521,-948,18.6,10.5,-13.0,19.1,10.3,-12.9,0.53,1.84,-12.2,25.3
2016-10-28 01:08:00,0.0,1.93096,0.00038,400.581,0.035,0.2939,0.0018,139.999,45.000,31573.35132,1.93657,402.008,34.440,45.071,45.000,0.00,0.07,-272.88,-272.90,-5,520,-948,18.7,10.5,-13.0,19.1,10.3,-12.9,0.52,1.99,-12.2,25.3
2016-10-28 01:09:00,0.0,1.93104,0.00038,400.570,0.029,0.2938,0.0015,140.001,45.000,31572.80500,1.93664,401.996,34.438,45.071,45.000,0.00,0.07,-272.87,-272.92,-6,521,-948,18.7,10.5,-13.0,19.1,10.3,-12.9,0.53,2.05,-12.2,25.3
2016-10-28 01:10:00,0.0,1.93080,0.00038,400.559,0.035,0.2951,0.0015,140.001,45.000,31574.34189,1.93648,401.992,34.438,45.071,45.000,0.00,0.07,-272.88,-272.92,-4,521,-948,18.6,10.5,-13.0,19.1,10.3,-12.9,0.53,1.80,-12.2,25.3
2016-10-28 01:11:00,0.0,1.93093,0.00032,400.554,0.038,0.2950,0.0018,140.000,45.000,31573.69013,1.93657,401.986,34.446,45.071,45.000,0.00,0.07,-272.87,-272.91,-5,520,-948,18.6,10.5,-13.0,19.1,10.3,-12.9,0.53,2.17,-12.2,25.3
2016-10-28 01:12:00,0.0,1.93081,0.00042,400.563,0.036,0.2952,0.0018,140.003,45.000,31574.32143,1.93649,401.997,34.444,45.071,45.000,0.00,0.07,-272.87,-272.92,-6,521,-948,18.6,10.5,-13.0,19.1,10.3,-12.8,0.53,1.79,-12.2,25.3
2016-10-28 01:13:00,0.0,1.93059,0.00045,400.524,0.040,0.2954,0.0016,140.001,45.000,31575.08978,1.93624,401.958,34.438,45.071,45.000,0.00,0.07,-272.88,-272.91,-4,521,-948,18.7,10.5,-13.0,19.1,10.3,-12.8,0.53,2.07,-12.2,25.3
2016-10-28 01:14:00,0.0,1.93052,0.00037,400.523,0.035,0.2954,0.0014,140.002,45.000,31576.74328,1.93620,401.957,34.427,45.071,45.000,0.00,0.07,-272.88,-272.92,-5,520,-948,18.6,10.5,-13.0,19.1,10.3,-12.8,0.53,1.97,-12.2,25.3
2016-10-28 01:15:00,0.0,1.93045,0.00030,400.553,0.044,0.2955,0.0017,140.000,45.000,31576.24673,1.93609,401.986,34.378,45.071,45.000,0.00,0.07,-272.87,-272.91,-6,521,-948,18.7,10.5,-13.0,19.1,10.3,-12.8,0.52,1.86,-12.2,25.3
2016-10-28 01:16:00,0.0,1.93091,0.00044,400.560,0.026,0.2950,0.0018,140.001,45.000,31574.52861,1.93656,401.992,34.375,45.072,45.000,0.00,0.07,-272.88,-272.91,-4,521,-948,18.6,10.5,-13.0,19.1,10.3,-12.9,0.53,2.15,-12.2,25.3
2016-10-28 01:17:00,0.0,1.93069,0.00043,400.548,0.042,0.2953,0.0015,140.002,45.000,31576.95069,1.93635,401.983,34.377,45.072,45.000,0.00,0.07,-272.88,-272.91,-6,520,-948,18.7,10.5,-13.0,19.1,10.3,-12.8,0.53,1.77,-12.2,25.3
2016-10-28 01:18:00,0.0,1.93047,0.00018,400.564,0.032,0.2958,0.0015,140.002,45.000,31578.34012,1.93613,402.001,34.381,45.072,45.001,0.00,0.07,-272.88,-272.90,-5,521,-948,18.6,10.5,-13.0,19.1,10.3,-12.8,0.52,2.13,-12.2,25.3
2016-10-28 01:19:00,0.0,1.93073,0.00038,400.527,0.029,0.2957,0.0021,140.001,45.000,31577.47379,1.93639,401.962,34.400,45.072,45.000,0.00,0.07,-272.87,-272.91,-4,521,-948,18.6,10.5,-13.0,19.1,10.3,-12.8,0.53,1.89,-12.2,25.3
2016-10-28 01:20:00,0.0,1.93091,0.00028,400.558,0.033,0.2957,0.0016,140.000,45.000,31575.02520,1.93655,401.994,34.404,45.072,45.000,0.00,0.07,-272.88,-272.91,-6,521,-948,18.6,10.5,-13.0,19.1,10.3,-12.8,0.52,1.94,-12.2,25.3
2016-10-28 01:21:00,0.0,1.93087,0.00032,400.529,0.034,0.2948,0.0017,140.002,45.000,31576.14967,1.93654,401.961,34.379,45.071,45.000,0.00,0.07,-272.87,-272.92,-5,521,-948,18.6,10.5,-13.0,19.1,10.3,-12.8,0.53,2.10,-12.2,25.3
2016-10-28 01:22:00,0.0,1.93065,0.00030,400.547,0.039,0.2960,0.0018,139.997,45.000,31574.80748,1.93632,401.983,34.382,45.071,45.000,0.00,0.07,-272.87,-272.91,-5,520,-948,18.6,10.5,-13.0,19.1,10.3,-12.8,0.52,1.78,-12.2,25.3
2016-10-28 01:23:00,0.0,1.93085,0.00036,400.551,0.031,0.2947,0.0015,140.001,45.000,31574.28012,1.93647,401.983,34.379,45.071,45.000,0.00,0.07,-272.87,-272.91,-6,521,-948,18.7,10.5,-13.0,19.1,10.3,-12.8,0.53,2.17,-12.2,25.3
2016-10-28 01:24:00,0.0,1.93101,0.00035,400.541,0.041,0.2949,0.0015,140.003,45.000,31575.21983,1.93667,401.973,34.414,45.071,45.000,0.00,0.07,-272.87,-272.92,-5,521,-948,18.6,10.5,-13.0,19.1,10.3,-12.8,0.53,1.82,-12.2,25.3
2016-10-28 01:25:00,0.0,1.93082,0.00039,400.513,0.042,0.2954,0.0022,140.001,45.000,31573.77117,1.93650,401.945,34.404,45.071,45.000,0.00,0.07,-272.87,-272.91,-5,520,-948,18.7,10.5,-13.0,19.1,10.3,-12.8,0.52,2.04,-12.2,25.3
2016-10-28 01:26:00,0.0,1.93071,0.00025,400.538,0.037,0.2942,0.0018,140.002,45.000,31575.09887,1.93635,401.968,34.402,45.071,45.000,0.00,0.07,-272.88,-272.92,-6,521,-948,18.6,10.4,-13.1,19.1,10.3,-12.9,0.53,2.02,-12.2,25.3
2016-10-28 01:27:00,0.0,1.93106,0.00030,400.567,0.039,0.2943,0.0015,140.002,45.000,31574.04625,1.93668,401.996,34.388,45.071,45.000,0.00,0.07,-272.89,-272.92,-4,521,-948,18.6,10.5,-13.0,19.1,10.3,-12.9,0.53,1.82,-12.2,25.3
2016-10-28 01:28:00,0.0,1.93081,0.00028,400.532,0.024,0.2946,0.0018,140.001,45.000,31575.45573,1.93647,401.961,34.374,45.071,45.000,0.00,0.07,-272.87,-272.90,-5,521,-948,18.6,10.5,-13.0,19.1,10.3,-12.9,0.53,2.16,-12.2,25.3
2016-10-28 01:29:00,0.0,1.93061,0.00028,400.514,0.037,0.2948,0.0018,140.002,45.000,31575.32450,1.93624,401.947,34.374,45.071,45.000,0.00,0.07,-272.87,-272.91,-6,521,-948,18.7,10.5,-13.0,19.1,10.3,-12.8,0.53,1.78,-12.2,25.3
2016-10-28 01:30:00,0.0,1.93073,0.00034,400.536,0.033,0.2936,0.0015,140.003,45.000,31576.34984,1.93635,401.961,34.376,45.071,45.000,0.00,0.07,-272.89,-272.91,-4,521,-948,18.7,10.4,-13.1,19.1,10.3,-12.9,0.53,2.10,-12.2,25.3
2016-10-28 01:31:00,0.0,1.93053,0.00042,400.493,0.033,0.2941,0.0015,140.000,45.000,31576.60860,1.93617,401.922,34.416,45.071,45.000,0.00,0.07,-272.87,-272.91,-6,521,-948,18.6,10.4,-13.1,19.1,10.3,-12.9,0.53,1.94,-12.2,25.3
2016-10-28 01:32:00,0.0,1.93050,0.00045,400.520,0.028,0.2942,0.0016,140.002,45.000,31576.02613,1.93611,401.947,34.434,45.071,45.000,0.00,0.07,-272.87,-272.90,-6,521,-948,18.6,10.4,-13.1,19.1,10.3,-12.9,0.52,1.89,-12.1,25.3
2016-10-28 01:33:00,0.0,1.93087,0.00046,400.538,0.030,0.2944,0.0019,139.999,45.000,31572.43675,1.93651,401.967,34.434,45.071,45.000,0.00,0.07,-272.88,-272.92,-4,521,-948,18.7,10.4,-13.0,19.1,10.3,-12.9,0.53,2.13,-12.2,25.3
2016-10-28 01:34:00,0.0,1.93078,0.00027,400.517,0.027,0.2953,0.0023,139.998,45.000,31573.32121,1.93646,401.950,34.415,45.071,45.000,0.00,0.07,-272.87,-272.91,-6,520,-948,18.6,10.5,-13.0,19.1,10.3,-12.9,0.53,1.76,-12.2,25.3
2016-10-28 01:35:00,0.0,1.93044,0.00038,400.518,0.035,0.2942,0.0021,140.001,45.000,31576.54893,1.93607,401.947,34.384,45.071,45.000,0.00,0.07,-272.88,-272.90,-5,521,-948,18.7,10.5,-13.0,19.1,10.3,-12.8,0.53,2.15,-12.1,25.3
2016-10-28 01:36:00,0.0,1.93064,0.00035,400.536,0.025,0.2952,0.0016,140.001,45.000,31575.90297,1.93627,401.970,34.375,45.071,45.000,0.00,0.07,-272.88,-272.91,-4,521,-948,18.7,10.5,-13.0,19.1,10.3,-12.8,0.53,1.86,-12.1,25.3
2016-10-28 01:37:00,0.0,1.93058,0.00037,400.570,0.042,0.2960,0.0020,140.001,45.000,31575.90371,1.93626,402.006,34.375,45.071,45.000,0.00,0.07,-272.88,-272.91,-6,521,-948,18.7,10.5,-13.0,19.1,10.3,-12.8,0.53,1.98,-12.2,25.3
2016-10-28 01:38:00,0.0,1.93077,0.00041,400.562,0.052,0.2974,0.0015,140.000,45.000,31574.66081,1.93647,402.007,34.375,45.071,45.000,0.00,0.07,-272.87,-272.92,-5,521,-948,18.6,10.5,-12.9,19.1,10.3,-12.8,0.53,2.07,-12.2,25.3
2016-10-28 01:39:00,0.0,1.93061,0.00036,400.528,0.041,0.2979,0.0021,139.998,45.000,31575.39251,1.93629,401.974,34.372,45.071,45.000,0.00,0.07,-272.87,-272.91,-5,521,-948,18.6,10.6,-12.9,19.1,10.4,-12.8,0.52,1.80,-12.2,25.3
2016-10-28 01:40:00,0.0,1.93063,0.00042,400.521,0.029,0.2971,0.0015,140.003,45.000,31575.69685,1.93636,401.965,34.373,45.071,45.000,0.00,0.07,-272.87,-272.92,-6,521,-948,18.7,10.6,-12.9,19.1,10.4,-12.7,0.53,2.17,-12.2,25.3
2016-10-28 01:41:00,0.0,1.93055,0.00038,400.559,0.035,0.2980,0.0017,140.002,45.000,31575.17082,1.93626,402.005,34.372,45.071,45.000,0.00,0.07,-272.87,-272.91,-4,521,-948,18.6,10.6,-12.9,19.1,10.4,-12.7,0.53,1.80,-12.1,25.3
2016-10-28 01:42:00,0.0,1.93054,0.00028,400.550,0.033,0.2990,0.0021,140.002,45.000,31576.60258,1.93628,402.002,34.369,45.071,45.000,0.00,0.07,-272.87,-272.90,-5,520,-948,18.6,10.7,-12.8,19.1,10.5,-12.7,0.52,2.06,-12.2,25.3
2016-10-28 01:43:00,0.0,1.93050,0.00037,400.535,0.037,0.3003,0.0016,140.002,45.000,31575.53985,1.93626,401.994,34.364,45.071,45.000,0.00,0.07,-272.88,-272.91,-6,521,-948,18.7,10.7,-12.8,19.1,10.5,-12.6,0.53,1.98,-12.1,25.3
2016-10-28 01:44:00,0.0,1.93041,0.00029,400.563,0.051,0.2995,0.0027,139.998,45.000,31576.07505,1.93615,402.016,34.370,45.071,45.000,0.00,0.07,-272.89,-272.90,-4,521,-948,18.6,10.6,-12.8,19.1,10.5,-12.6,0.52,1.85,-12.2,25.3